Glendive, MT

9:59 PM MST on December 09, 2019 (GMT -0700)
Dawson Community

Weather History for KGDV - November, 2019

Change the Weather History Date:

Saturday, November 16, 2019

  Actual Average Record
Temperature  
Mean Temperature 41 °F 33 °F  
Max Temperature 47 °F 42 °F 63 °F (2006)
Min Temperature 34 °F 23 °F -4 °F (2000)
Degree Days  
Heating Degree Days 24 32  
Month to date heating degree days 618 456  
Year to date heating degree days 7293 5393  
Since 1 July heating degree days 1727 1101  
Cooling Degree Days 0 0  
Month to date cooling degree days 0 0  
Year to date cooling degree days 465 382  
Since 1 July cooling degree days 465 382  
Moisture  
Dew Point 32 °F    
Average Humidity 76    
Maximum Humidity 89    
Minimum Humidity 58    
Precipitation  
Precipitation 0.00 in 0.01 in 0.06 in (2018)
Month to date precipitation 0.28 0.27  
Year to date precipitation 18.06 12.99  
Sea Level Pressure  
Sea Level Pressure 30.04 in    
Wind  
Wind Speed 11 mph (WNW)    
Max Wind Speed 28 mph    
Max Gust Speed 38 mph    
Visibility 10 miles    
Events      
T = Trace of Precipitation, MM = Missing Value Source: NWS Daily Summary

Daily Weather History Graph

Daily Weather History Graph

Search for Another Location

Airport or City:

Astronomy

Nov. 16, 2019 Rise Set
Actual Time 7:04 AM MST 4:23 PM MST
Civil Twilight 6:30 AM MST 4:56 PM MST
Nautical Twilight 5:53 AM MST 5:33 PM MST
Astronomical Twilight 5:17 AM MST 6:09 PM MST
Moon 7:51 PM MST (11/16) 11:07 AM MST (11/16)
Length of Visible Light 10h 25m
Length of Day
9h 19m
Waning Gibbous, 82% of the Moon is Illuminated
Nov 16
Waning Gibbous
Nov 19
Last Quarter
Nov 26
New
Dec 3
First Quarter
Dec 11
Full

Hourly Weather History & Observations

Time (MST) Temp. Windchill Dew Point Humidity Pressure Visibility Wind Dir Wind Speed Gust Speed Precip Events Conditions
12:56 AM 34.0 °F 28.8 °F 30.9 °F 89% 29.87 in 10.0 mi SSW 5.8 mph - N/A   Scattered Clouds
1:56 AM 35.1 °F - 30.9 °F 85% 29.87 in 10.0 mi Calm Calm - N/A   Partly Cloudy
2:56 AM 43.0 °F - 33.1 °F 68% 29.87 in 10.0 mi Calm Calm - N/A   Scattered Clouds
3:56 AM 42.1 °F - 33.1 °F 70% 29.90 in 10.0 mi Calm Calm - N/A   Clear
4:56 AM 37.9 °F 32.7 °F 32.0 °F 79% 29.93 in 10.0 mi WSW 6.9 mph - N/A   Clear
5:56 AM 39.9 °F 33.4 °F 33.1 °F 77% 29.94 in 10.0 mi WNW 10.4 mph - N/A   Clear
7:56 AM 39.9 °F 30.0 °F 33.1 °F 77% 29.99 in 10.0 mi WNW 21.9 mph 28.8 mph N/A   Clear
8:56 AM 41.0 °F 30.5 °F 35.1 °F 79% 30.02 in 10.0 mi WNW 26.5 mph 34.5 mph N/A   Partly Cloudy
9:16 AM 41.0 °F 31.4 °F 35.6 °F 81% 29.97 in 10.0 mi WNW 21.9 mph 38.0 mph N/A   Mostly Cloudy
9:56 AM 41.0 °F 31.6 °F 35.1 °F 79% 30.05 in 10.0 mi WNW 20.7 mph 27.6 mph N/A   Mostly Cloudy
10:56 AM 42.1 °F 32.8 °F 36.0 °F 79% 30.06 in 10.0 mi NW 21.9 mph 34.5 mph N/A   Overcast
11:49 AM 42.8 °F 33.3 °F 35.6 °F 76% 30.01 in 10.0 mi WNW 24.2 mph 31.1 mph N/A   Mostly Cloudy
11:56 AM 43.0 °F 34.2 °F 35.1 °F 74% 30.06 in 10.0 mi WNW 20.7 mph 31.1 mph N/A   Mostly Cloudy
12:25 PM 44.6 °F 35.9 °F 35.6 °F 71% 30.02 in 10.0 mi WNW 23.0 mph 31.1 mph N/A   Mostly Cloudy
12:56 PM 44.1 °F 36.5 °F 36.0 °F 73% 30.09 in 10.0 mi WNW 17.3 mph 26.5 mph N/A   Overcast
1:56 PM 46.9 °F - 33.1 °F 59% 30.06 in 10.0 mi WNW 27.6 mph 33.4 mph N/A   Scattered Clouds
2:56 PM 46.0 °F 38.5 °F 32.0 °F 58% 30.06 in 10.0 mi WNW 19.6 mph 28.8 mph N/A   Clear
3:56 PM 43.0 °F 36.0 °F 30.9 °F 62% 30.09 in 10.0 mi NW 13.8 mph - N/A   Clear
4:56 PM 39.9 °F 32.5 °F 30.9 °F 70% 30.13 in 10.0 mi NW 12.7 mph - N/A   Clear
5:56 PM 39.0 °F 31.0 °F 30.9 °F 73% 30.14 in 10.0 mi WNW 13.8 mph - N/A   Clear
6:56 PM 37.9 °F 31.5 °F 30.0 °F 73% 30.16 in 10.0 mi WNW 9.2 mph - N/A   Clear
7:56 PM 36.0 °F 28.0 °F 30.0 °F 79% 30.15 in 10.0 mi WNW 11.5 mph - N/A   Clear
8:56 PM 34.0 °F 26.0 °F 28.9 °F 82% 30.15 in 10.0 mi West 10.4 mph - N/A   Clear
9:56 PM 34.0 °F 26.0 °F 28.9 °F 82% 30.15 in 10.0 mi WNW 10.4 mph - N/A   Clear
10:56 PM 32.0 °F 26.4 °F 28.0 °F 85% 30.14 in 10.0 mi NNW 5.8 mph - N/A   Clear
11:56 PM 30.0 °F 24.1 °F 27.0 °F 88% 30.15 in 10.0 mi ESE 5.8 mph - N/A   Clear